COSMOS 1275 DEB, 14441

Orbit data source: Space-Track

COSMOS 1275 DEB, 14441 is space debris in LEO originally from a launch on Thu, 04 Jun 1981 UTC launched from the Plesetsk Missile And Space Complex (PKMTR). Debris objects in space refer to the collection of defunct objects orbiting the Earth. Examples of debris include non-operational satellites, rocket bodies, and fragments generated from explosions, collisions, or faulty payload assembly.

Loading next visibility...
Identifier
14441, 1981-053JH
Orbit
LEO
Country
Flag of CISCIS
Related business
Manufacturer
Unknown
Mission
Spacecraft
Bus & Motor
Unknown
Mass
Unknown
Launch date (UTC)
1981-06-04 (45 years ago)
Launch vehicle
Unknown
Launch site
Plesetsk Missile And Space Complex (PKMTR)
Object type
Payload
Rocket body
Debris
Shape & HBR
Unknown shape, 0.1 m
Radar Cross Section
Medium (>0.1 m² and <1 m²)

Expand to show TLE details & history
Last TLE update: 17 hours ago

TLE from 17 hours ago
0 COSMOS 1275 DEB
1 14441U 81053JH  26254.84383988  .00001366  00000-0  72015-3 0  9995
2 14441  83.1131 207.1096 0046040  66.2866 294.3132 14.12728115285300
Epoch: 2026-09-11T20:15Z
TLE epoch observation values (Epoch: 2026-09-11T20:15:07.765Z)
Latitude
-0.00002°
Longitude
-87.53413°
Altitude
839.431 km
Speed
7.44 km/s
True Right ascension
13h 48m 26s
True Declination
0° 00' 00"
Sunlit
Object was in daylight at epoch
Visualization orbit readout
Latitude
Unknown
Longitude
Unknown
Altitude
Unknown
Speed
Unknown
Apparent Right ascension
Unknown
Apparent Declination
Unknown
Sunlit
N/A
Visualization observer readout
Local Sidereal Time
05:38:30
Azimuth
Unknown
Elevation
Unknown
Doppler factor
Unknown
Orbital elements
Apogee altitude
880.406 km
Perigee altitude
813.876 km
Semi-major axis
7,225.278 km
Eccentricity
0.0046
Inclination
83.1131°
RAAN
207.1096°
Arg. of periapsis
66.2866°
True anomaly
293.83128°
Mean anomaly
294.3132°
Eccentric anomaly
294.07235°
Mean motion
3.53396 °/min
Orbital period
101.87 mins
BSTAR
0.00072015
Loading maneuver chart data...
Computing Atmospheric mass density...
Loading historical data...
Loading historical data...
Loading historical data...
Loading historical data...
Loading historical data...
Loading historical data...
Loading historical data...

Documentation

Showing up to 5 results
|